ELECTRON KICK STAGE R/B, 59590

Orbit data source: Space-Track

ELECTRON KICK STAGE R/B, 59590 is space debris in SSO originally from a launch on Tue, 23 Apr 2024 UTC launched from the Rocket Lab Launch Complex (RLLC). Debris objects in space refer to the collection of defunct objects orbiting the Earth. Examples of debris include non-operational satellites, rocket bodies, and fragments generated from explosions, collisions, or faulty payload assembly.

Loading next visibility...
Identifier
59590, 2024-077D
Orbit
SSO
Country
Flag of USUS
Related business
Manufacturer
Rocket Lab
Mission
Spacecraft
Bus & Motor
KICK STAGE, CURIE
Mass
~50 kg wet, ~50 kg dry
Launch date (UTC)
2024-04-23 (2 years ago)
Launch vehicle
Unknown
Launch site
Rocket Lab Launch Complex (RLLC)
Object type
Payload
Rocket body
Debris
Shape & HBR
Trunc Cone, 0.7 m
Radar Cross Section
0.760 m², Medium (>0.1 m² and < 1m²)

Expand to show TLE details & history
Last TLE update: 15 hours ago

TLE from 15 hours ago
0 ELECTRON KICK STAGE R/B
1 59590U 24077D   25301.59793118  .00005714  00000-0  56142-3 0  9990
2 59590  97.3315 321.8089 0352317 263.0850  93.0160 14.55788869 80170
Epoch: 2025-10-28T14:21Z
TLE epoch observation values (Epoch: 2025-10-28T14:21:01.253Z)
Latitude
-0.00003°
Longitude
69.37055°
Altitude
731.688 km
Speed
7.478 km/s
True Right ascension
21h 27m 14s
True Declination
0° 00' 00"
Sunlit
Object was in daylight at epoch
Visualization orbit readout
Latitude
Unknown
Longitude
Unknown
Altitude
Unknown
Speed
Unknown
Apparent Right ascension
Unknown
Apparent Declination
Unknown
Sunlit
N/A
Visualization observer readout
Local Sidereal Time
00:29:39
Azimuth
Unknown
Elevation
Unknown
Doppler factor
Unknown
Orbital elements
Apogee altitude
953.358 km
Perigee altitude
454.337 km
Semi-major axis
7,081.985 km
Eccentricity
0.03523
Inclination
97.3315°
RAAN
321.8089°
Arg. of periapsis
263.085°
True anomaly
97.03504°
Mean anomaly
93.016°
Eccentric anomaly
95.02686°
Mean motion
3.64175 °/min
Orbital period
98.85 mins
BSTAR
0.00056142
Loading maneuver chart data...
Computing Atmospheric mass density...
Loading historical data...
Loading historical data...
Loading historical data...
Loading historical data...
Loading historical data...
Loading historical data...
Loading historical data...
Other satellites on launch #77 in the year 2024 (2024-04-23 UTC)

Documentation

Showing up to 5 results
|